Terminal Aerodrome Forecast
Issued by NWS

Home | Current Version | Previous Version | Text Only | Print | Product List | Glossary On
Versions: 1 2 3 4 5 6 7 8 9 10 11 12 13 14 15 16 17 18 19 20 21 22 23 24 25 26 27 28 29 30 31 32 33 34 35 36 37 38 39 40 41 42 43 44 45 46
000
FTUS42 KMFL 180537
TAFMIA
TAF
KMIA 180537Z 1806/1906 VRB03KT P6SM FEW100 BKN250
     FM181300 31005KT P6SM FEW035 SCT250
     FM181900 17008KT P6SM VCTS SCT035CB SCT150
     FM190100 13005KT P6SM FEW035 SCT250=

USA.gov is the U.S. government's official web portal to all federal, state and local government web resources and services.